ASTRA 1G
1 25071U 97076A   03013.00000000  .00000139  00000-0  10000-3 0  3879
2 25071   0.0122 319.8851 0002995  65.1991 106.1633  1.00273184 18772
INMARSAT 3-F5
1 25153U 98006B   03015.13392362  .00000161  00000-0  10000-3 0  8325
2 25153   0.4468 357.8654 0003784 313.2227 236.2746  1.00276015 18157
HOT BIRD 4
1 25237U 98013A   03013.80550721  .00000107  00000-0  10000-3 0  3250
2 25237   0.0242 116.4838 0007929 193.6371 105.7449  1.00276095 18185
NOAA 15
1 25338U 98030A   03016.01737769  .00000252  00000-0  12788-3 0  9708
2 25338  98.5514  39.0769 0011324  57.2826 302.9443 14.24228192243021
RESURS O1-N4
1 25394U 98043A   03015.55453539  .00000204  00000-0  10809-3 0  4245
2 25394  98.6364  94.1013 0001188 172.5340 187.5858 14.23864127234693
TMSAT
1 25396U 98043C   03016.42978806 -.00000043  00000-0  00000+0 0  8146
2 25396  98.6319  94.1746 0002082 210.1678 149.9382 14.23499736234813
TECHSAT 1B
1 25397U 98043D   03014.96211203 +.00000102 +00000-0 +64533-4 0 00946
2 25397 098.6280 091.6630 0000483 214.0106 146.1041 14.22950882234574
ASTRA 2A
1 25462U 98050A   03013.00000000  .00000169  00000-0  00000+0 0  5281
2 25462   0.0385 308.7109 0004824 280.8620 270.7162  1.00272094 16073
EUTELSAT W2
1 25491U 98056A   03015.86810854  .00000123  00000-0  00000+0 0  5641
2 25491   0.0572 107.9262 0003740 184.8614 150.6403  1.00275257 15712
HOT BIRD 5
1 25495U 98057A   03015.13542825  .00000175  00000-0  00000+0 0  4923
2 25495   0.0349 198.9702 0009463  93.1649 263.9846  1.00277875 15677
SEDSAT 1
1 25509U 98061B   03015.24212428  .00001718  00000-0  33535-3 0  7570
2 25509  31.4340 347.0096 0357876   3.1261 357.1502 14.27372412220400
PAN SAT
1 25520U 98064B   03014.61741936 +.00004006 +00000-0 +20647-3 0 06300
2 25520 028.4586 096.6203 0005302 334.1665 025.8684 15.13694513232281
ISS (ZARYA)
1 25544U 98067A   03016.53240156  .00032718  00000-0  41361-3 0  5913
2 25544  51.6358  62.0486 0005566  38.7223 113.3057 15.59206381237342
ORSTED
1 25635U 99008B   03015.52410898  .00000907  00000-0  23636-3 0  8070
2 25635  96.4478   9.9149 0146968  77.0926 284.6642 14.44771016205024
SUNSAT
1 25636U 99008C   03014.97565638 +.00000420 +00000-0 +11709-3 0 06944
2 25636 096.4497 008.2260 0150678 084.9045 276.9329 14.42918235204821
UOSAT 12
1 25693U 99021A   03016.35884456  .00000500  00000-0  91502-4 0  6161
2 25693  64.5598 112.4301 0017220 317.1629  42.8116 14.76348676201352
FENGYUN 1C
1 25730U 99025A   03016.20028695 -.00000042  00000-0  21674-6 0  7434
2 25730  98.6369  41.8526 0015358  97.0890 263.2030 14.11729058189924
ASTRA 1H
1 25785U 99033A   03013.00000000  .00000139  00000-0  10000-3 0  3685
2 25785   0.0122 319.8851 0002995  65.1991 106.1621  1.00273184 13136
TERRA
1 25994U 99068A   03016.28271161  .00000893  00000-0  20828-3 0  6078
2 25994  98.2030  93.0092 0001063  79.0100 281.1221 14.57092750163820
JAWSAT
1 26061U 00004A   03015.55043234  .00000685  00000-0  24542-3 0  7418
2 26061 100.2116  66.2968 0035364  16.2859 343.9451 14.37781734155642
OPAL
1 26063U 00004C   03015.19259967  .00000204  00000-0  90708-4 0  6988
2 26063 100.2173  63.5271 0037470  23.6329 336.6561 14.35465494155458
ASUSAT
1 26065U 00004E   03015.56832035  .00000235  00000-0  10134-3 0  7095
2 26065 100.2166  64.1124 0037630  24.3016 335.9928 14.35491875155502
GOES 11
1 26352U 00022A   03015.41373847 -.00000021  00000-0  10000-3 0  9750
2 26352   0.0621 111.7636 0004333 170.5422 228.6914  1.00261813  9898
EUTELSAT W4
1 26369U 00028A   03015.73563206  .00000174  00000-0  00000+0 0  3396
2 26369   0.0462  31.1411 0002930 207.4780 177.1155  1.00276459  9711
FENGYUN 2B
1 26382U 00032A   03015.66515225 -.00000309  00000-0  00000+0 0  7694
2 26382   0.6483 287.2538 0000513 158.3809  12.9282  1.00265230  9374
EUTELSAT W1
1 26487U 00052A   03014.91145256  .00000088  00000-0  10000-3 0  3427
2 26487   0.0167  83.1515 0007361 134.8152 234.1453  1.00272094  8675
ASTRA 2B
1 26494U 00054A   03013.00000000  .00000169  00000-0  00000+0 0  2517
2 26494   0.0178 354.5658 0005000 302.8402 202.8287  1.00276704  8557
NOAA 16
1 26536U 00055A   03015.77873150  .00000383  00000-0  23394-3 0  1663
2 26536  98.8965 324.3193 0011294  44.1229 316.0853 14.11883594119385
SAUDISAT 1A
1 26545U 00057A   03015.33012070  .00002480  00000-0  34681-3 0  3981
2 26545  64.5580 137.1484 0054271 243.9918 115.5587 14.78880508124159
UNISAT
1 26547U 00057C   03015.33353857  .00004191  00000-0  55922-3 0  4178
2 26547  64.5566 139.5000 0061343 246.6410 112.8225 14.79581678124123
TIUNGSAT 1
1 26548U 00057D   03014.39246741 +.00003253 +00000-0 +42777-3 0 04034
2 26548 064.5562 133.3068 0047579 243.3296 116.2927 14.81136486124164
SAUDISAT 1B
1 26549U 00057E   03016.42436397  .00002386  00000-0  34143-3 0  6675
2 26549  64.5485 137.7251 0058654 244.2292 115.2747 14.77825511124240
AMSAT OSCAR 40
1 26609U 00072B   03014.42373129  .00000025  00000-0  10000-3 0  3042
2 26609   7.9543  70.5875 7935115 133.0894 327.3710  1.25596681 10146
GOES 12
1 26871U 01031A   03016.20404841  .00000000  00000-0  10000-3 0  7736
2 26871   0.4581  85.7052 0003075  85.6828 272.1668  1.00287966  5504
STARSHINE 3
1 26929U 01043A   03016.53245669  .01076036  00000-0  70816-3 0  6823
2 26929  67.0190  74.1295 0007673 334.3584  25.7748 16.16750441 73585
PCSAT
1 26931U 01043C   03016.42246680  .00000370  00000-0  17828-3 0  3781
2 26931  67.0479 340.9451 0005284 258.3271 101.7238 14.29095604 67611
SAPPHIRE
1 26932U 01043D   03015.56499786  .00000204  00000-0  11261-3 0  3728
2 26932  67.0542 342.8653 0006226 239.1697 120.8793 14.29279184 67518
ENVISAT
1 27386U 02009A   03016.36143229 -.00000314  00000-0 -10039-3 0  8509
2 27386  98.5498  85.3923 0000994  90.9815 269.1483 14.32248582 45994
IDEFIX/ARIANE 42P
1 27422U 02021B   03015.54848725  .00000315  00000-0  14481-3 0  2098
2 27422  98.6999  94.8997 0011819 247.1933 112.8000 14.27949600 36603
NOAA 17
1 27453U 02032A   03015.96235930  .00000321  00000-0  16146-3 0  2691
2 27453  98.7619  87.3407 0012693  94.0359 266.2270 14.23271305 29186
HOT BIRD 6
1 27499U 02038A   03013.80550721  .00000106  00000-0  10000-3 0   665
2 27499   0.0928  32.8693 0008090 290.3889  92.5421  1.00271722  1476
RUBIN 2
1 27605U 02058A   03015.86829372  .00001035  00000-0  18715-3 0   309
2 27605  64.5528 299.5709 0030818 125.2649 235.1337 14.71375357  3855
